Location: Marcelcave
(49.8507°N, 2.5742°E)
Time: 15:05:29
(UTC+00:00)

Daily predictions for brighter satellites

Satellite Brightness Start Highest point End
(mag) Time Altitude Azimuth Time Altitude Azimuth Time Altitude Azimuth
Cosmos 2219 Rocket 3.3 20:33:38 10° SSE 20:38:00 24° ESE 20:42:23 10° NE
Cosmos 2360 Rocket 2.3 20:34:02 10° SSW 20:39:35 62° ESE 20:45:11 10° NE
IGS 5A 3.5 20:36:42 10° SSE 20:40:50 68° ENE 20:44:59 10° N
Cosmos 2333 Rocket 3.0 20:42:48 10° SSE 20:47:41 31° ESE 20:52:37 10° NE
ATLAS 2AS CENTAUR R/B 4.0 20:42:22 10° NW 20:49:38 40° NNE 20:56:25 10° E
Cosmos 1315 Rocket 4.0 20:46:43 10° N 20:50:23 30° ENE 20:54:02 10° SE
Resurs 01 Rocket 2.8 20:48:33 10° S 20:52:44 41° W 20:56:56 10° NNW
CZ-2C R/B 4.0 20:48:20 10° N 20:53:27 43° WNW 20:58:26 10° SW
Cosmos-2242 3.0 20:49:40 10° N 20:54:02 80° E 20:58:24 10° SSE
Cosmos 1818 3.6 20:49:18 10° SSW 20:54:41 70° SE 21:00:07 10° NE
Cosmos 773 Rocket 4.4 20:52:42 10° S 20:57:44 45° ESE 21:02:45 10° NE
SL-16 R/B 3.3 20:53:03 10° SW 20:58:34 51° NW 21:04:07 10° NNE
Cosmos 2221 4.0 20:55:11 10° NNE 20:58:47 24° ENE 21:02:20 10° ESE
ERS-1 Rocket 3.1 20:57:10 10° SSE 21:02:09 66° ENE 21:07:10 10° N
GEOS 3 Rocket 3.8 20:58:19 10° NE 21:03:40 59° SE 21:08:58 10° SSW
USA 215 3.6 21:01:01 10° ENE 21:07:11 42° SE 21:13:18 10° SSW
Cosmos 2278 Rocket 3.1 21:02:18 10° NNW 21:07:38 39° NE 21:12:55 10° ESE
ATLAS 5 CENTAUR R/B 1.5 21:07:08 10° SW 21:11:17 77° SE 21:16:01 10° NE
USA 245 3.9 21:09:11 10° S 21:12:26 50° W 21:16:34 10° NNW
Meteor 1-11 4.4 21:06:58 10° S 21:12:29 60° E 21:18:06 10° NNE
Cosmos 1844 Rocket 3.2 21:07:06 10° NW 21:12:33 55° WSW 21:17:58 10° S
Cosmos 1400 Rocket 3.2 21:09:25 10° NNW 21:13:22 61° W 21:17:15 10° S
Gblst 52 Del rocket 4.3 21:07:49 10° WNW 21:13:28 85° SSW 21:19:45 10° ESE
Cosmos 1758 Rocket 4.0 21:11:03 10° SSW 21:15:32 68° WNW 21:20:02 10° N
SPOT 5 2.9 21:13:56 11° SSE 21:18:52 78° ENE 21:23:40 10° NNW
Lacrosse 5 rocket 3.3 21:15:40 10° WNW 21:19:29 31° N 21:23:07 10° NE
BREEZE-M DEB (TANK) 4.4 21:16:04 10° W 21:20:16 85° S 21:36:56 10° ESE
Spot 2 Rocket 4.3 21:17:53 10° S 21:22:48 49° W 21:27:46 10° NNW
USA 81 4.1 21:20:14 10° S 21:25:28 68° E 21:30:44 10° N
BREEZE M DEB (TANK) 3.0 21:24:32 10° W 21:26:44 24° SSW 21:27:39 18° S
Cosmos 2058 4.5 21:25:00 13° SE 21:27:24 21° E 21:30:33 10° NE
Cosmos 2181 Rocket 4.1 21:21:49 10° N 21:28:14 87° E 21:34:15 11° S
TSX-5 4.4 21:31:13 10° NNW 21:34:29 43° NE 21:37:36 14° ESE
Cosmos 2074 Rocket 4.4 21:29:15 12° SSE 21:34:41 48° E 21:40:37 10° NNE
SPOT 1/Viking Rocket 4.3 21:32:27 10° S 21:37:25 48° W 21:42:26 10° NNW
Cosmos 1953 Rocket 3.8 21:34:20 10° SSW 21:38:38 70° W 21:42:59 10° N
USA 267 3.3 21:34:26 10° ESE 21:41:01 84° NNE 21:47:37 10° WNW
SAR-Lupe-2 4.3 21:39:40 10° N 21:43:11 53° WNW 21:46:41 10° SSW
Cosmos 2084 3.6 21:40:27 10° NW 21:44:54 70° SW 21:48:05 19° SSE
Cosmos 1842 Rocket 3.5 21:41:28 10° N 21:45:51 75° E 21:49:02 18° SSE
Cosmos 2322 Rocket 4.2 21:41:11 10° WSW 21:46:08 31° NW 21:51:06 10° NNE
MTI 4.0 21:48:37 10° NNE 21:51:37 45° E 21:53:10 23° SSE
Cosmos 923 Rocket 4.5 21:52:20 17° SSE 21:56:04 42° ESE 22:01:02 10° NE
ATLAS CENTAUR R/B 1.5 21:52:46 10° NW 21:56:22 49° SW 21:58:26 22° S
Cosmos 1825 4.0 21:58:09 15° ESE 21:59:32 18° E 22:02:12 10° NE
Cosmos 1980 4.2 21:56:55 17° S 22:00:49 40° ESE 22:06:03 10° NE
ALOS 2 4.4 21:58:03 11° ESE 22:01:11 22° ENE 22:04:32 10° NNE
COSMOS 2428 2.7 21:59:57 10° SSW 22:05:37 90° WNW 22:11:21 10° NNE
Cosmos 1869 3.3 22:02:49 10° NNW 22:06:49 80° W 22:09:22 21° S
Cosmos 2322 4.4 22:03:59 10° SW 22:09:37 57° NW 22:15:17 10° NNE
NOSS 0 Rocket 4.0 22:07:32 12° S 22:13:04 59° ESE 22:19:08 10° NE
NOSS 3-4 (A) 3.9 22:06:31 10° NW 22:13:25 80° NE 22:19:46 16° SE
NOSS 3-4 (C) 3.9 22:06:38 10° NW 22:13:31 79° NE 22:19:55 16° SE
Terra 2.6 22:10:33 15° SSW 22:14:17 46° W 22:18:53 10° NNW
Cosmos 2237 Rocket 2.5 22:14:58 18° S 22:19:01 51° ESE 22:24:33 10° NE
Genesis I 4.1 22:18:35 26° SE 22:19:31 29° ESE 22:22:56 10° ENE
Cosmos 2219 Rocket 2.6 22:15:56 10° SW 22:21:29 65° WNW 22:27:06 10° NNE
Cosmos 2344 4.0 22:16:02 16° S 22:21:33 41° ESE 22:28:51 10° NE
Atlas Centaur 2 4.4 22:19:33 10° SSW 22:21:21 12° SSW 22:21:21 12° SSW
Cosmos 2360 Rocket 4.2 22:19:04 10° WSW 22:24:00 30° NW 22:28:58 10° NNE
NOSS 3-3 (A) 4.1 22:18:11 10° SW 22:24:07 83° NW 22:30:56 10° NE
NOSS 3-3 (C) 4.0 22:18:17 10° SW 22:24:14 84° NW 22:31:03 10° NE
Cosmos 1315 Rocket 4.5 22:23:21 10° NNW 22:26:52 28° W 22:29:55 13° SSW
Thor Agena Rocket 3.7 22:25:17 10° NNE 22:30:21 56° ESE 22:33:18 24° S
Cosmos 2333 Rocket 3.0 22:26:07 10° SW 22:31:41 54° NW 22:37:20 10° NNE
Cosmos 2184 Rocket 4.2 22:27:11 13° SSW 22:32:48 72° WNW 22:39:08 10° N
Cosmos 2221 3.5 22:32:24 10° NNW 22:36:31 40° W 22:39:20 18° SSW
BREEZE-M DEB (TANK) 1.4 22:36:09 10° W 22:40:27 70° SSW 22:41:22 35° ESE
Iridium 2 3.6 22:36:54 10° N 22:40:45 85° E 22:42:26 32° S
Cosmos 1371 Rocket 4.0 22:35:50 10° NNW 22:41:07 86° ENE 22:44:15 25° SSE
ATLAS 2AS CENTAUR R/B 2.8 22:33:44 10° NW 22:41:24 83° SW 22:46:25 21° SE
EO 1 Del DPAF 3.2 22:39:42 10° NNE 22:43:27 63° ESE 22:44:59 33° S
Cosmos 1892 3.0 22:41:59 22° SSW 22:44:15 60° WNW 22:48:02 10° N
MOS 1-B Rocket 4.5 22:37:25 10° NNE 22:45:16 69° ESE 22:49:56 22° S
Cosmos 1766 Rocket 4.4 22:44:24 25° SE 22:46:09 36° E 22:50:12 10° NNE
Aureole 2 Rocket 2.6 22:45:30 10° NNW 22:48:14 45° ENE 22:48:59 35° ESE
Cosmos 1328 Rocket 4.4 22:44:15 10° N 22:48:18 38° ENE 22:50:25 23° SE
Okean 3 Rocket 4.1 22:47:02 28° SSE 22:48:56 44° E 22:53:09 10° NNE
USA 215 3.4 22:43:58 10° ENE 22:50:33 79° NNW 22:57:06 10° WSW
Cosmos 1606 3.3 22:46:56 10° N 22:50:42 47° ENE 22:52:19 29° SE
Cosmos 2278 Rocket 2.9 22:46:26 10° NW 22:51:47 43° WSW 22:54:59 22° SSW
Cosmos 2112 Rocket 4.0 22:48:24 21° SSW 22:52:02 79° ESE 22:57:26 10° NNE
Cosmos 2297 3.9 22:47:38 10° NNW 22:53:23 68° ENE 22:57:12 22° SE
Cosmos 158 Rocket 3.8 22:52:56 21° SSW 22:56:13 90° NW 23:01:11 10° NNE
ATLAS 5 CENTAUR R/B 4.0 22:52:40 10° W 22:56:29 27° NNW 23:00:45 10° NNE
Cosmos 1420 Rocket 4.4 22:52:04 10° NNW 22:57:18 59° ENE 23:00:36 23° SE
Lacrosse 5 rocket 2.9 22:55:39 10° NW 22:59:26 34° NNE 23:03:01 10° E
Cosmos 1943 Rocket 3.2 22:54:31 10° NNW 22:59:54 42° NE 23:04:41 13° ESE
Spot 4 4.1 22:59:07 27° S 23:01:38 62° WSW 23:06:23 10° NNW
SL-16 R/B 2.7 23:00:46 27° SSE 23:03:24 43° ESE 23:08:45 10° NE
TIMED 4.5 23:01:49 30° S 23:03:51 70° ESE 23:08:13 10° NNE
Cosmos 2058 4.0 23:01:11 17° SW 23:04:04 40° WNW 23:08:00 10° N
Cosmos 2056 Rocket 3.6 22:59:39 10° NNW 23:05:04 72° WSW 23:07:58 28° S
Cosmos 1408 3.0 23:03:24 27° SW 23:05:05 54° WNW 23:08:36 10° N
Cosmos 2154 Rocket 4.5 23:07:50 16° SSW 23:12:45 57° WNW 23:18:52 10° N
Cosmos 2341 Rocket 4.0 23:11:46 24° S 23:15:44 89° WNW 23:21:59 10° N
Cosmos 332 Rocket 4.2 23:13:57 10° NNW 23:18:42 57° ENE 23:21:28 24° SE
Cosmos 1680 Rocket 4.1 23:15:58 14° SW 23:20:30 57° WNW 23:25:46 10° NNE
Meteor 2-3 Rocket 4.1 23:21:02 27° SSE 23:23:53 53° E 23:29:25 10° NNE
USA 267 3.9 23:21:24 25° S 23:24:27 38° SW 23:30:31 10° WNW
Cosmos 2151 3.3 23:23:52 28° SSW 23:26:00 61° WNW 23:30:15 10° N
IRIDIUM 104 4.3 23:23:26 30° S 23:26:05 79° E 23:31:21 10° N
Helios 1A 3.2 23:24:53 31° SE 23:26:43 63° ENE 23:30:52 10° N
Cosmos 405 4.1 23:24:31 10° N 23:27:50 35° ENE 23:29:08 26° ESE
Meteor 1-26 Rocket 4.4 23:25:52 10° N 23:31:56 78° ENE 23:35:20 27° SSE
Cosmos 1452 Rocket 3.6 23:26:51 10° NNW 23:32:09 76° ENE 23:35:06 27° SSE
CZ-4C R/B 3.5 23:26:02 10° NW 23:32:44 54° NE 23:40:35 10° ESE
COSMOS 2455 3.0 23:27:51 10° NW 23:33:56 75° NE 23:38:24 19° SE
SL-8 Rocket 4.0 23:30:59 26° S 23:34:41 86° W 23:40:53 10° N
Cosmos 1825 3.2 23:32:56 23° SW 23:34:46 39° WNW 23:38:21 10° N
IRIDIUM 114 4.3 23:32:35 30° S 23:35:16 87° W 23:40:31 10° N
Cosmos 1340 2.7 23:34:23 42° SSE 23:35:28 68° E 23:39:13 10° NNE
Cosmos 1933 3.3 23:32:48 10° NNW 23:36:50 72° W 23:38:13 38° S
ALOS 2 3.0 23:35:27 31° SSW 23:37:13 51° W 23:41:31 10° NNW
Cosmos 1408 Rocket 3.6 23:35:56 36° S 23:37:39 71° E 23:42:04 10° NNE
Cosmos 1151 Rocket 3.1 23:34:03 10° NNW 23:38:22 66° W 23:40:03 35° SSW
Meteor 2-12 Rocket 4.4 23:37:27 27° S 23:40:59 88° E 23:47:10 10° N
APEX 2.1 23:41:32 10° NNW 23:44:17 84° WSW 23:44:22 81° S
Cosmos 1727 Rocket 4.0 23:38:08 10° N 23:44:24 82° E 23:48:04 27° SSE
IRIDIUM 103 4.4 23:41:42 29° SSW 23:44:24 74° W 23:49:39 10° N
Cosmos 2369 Rocket 2.6 23:39:01 10° NNW 23:44:34 59° ENE 23:48:49 17° SE
Cosmos 44 2.9 23:43:38 30° SSW 23:45:43 84° SE 23:50:12 10° NE
Cosmos 1500 Rocket 4.2 23:44:49 30° SE 23:46:30 44° E 23:50:42 10° NNE
GP-B 3.5 23:42:28 10° N 23:46:49 54° W 23:48:50 29° SSW
SL-4 R/B 2.2 23:48:59 28° NW 23:48:59 28° NW 23:50:15 10° NNW
Cosmos 371 Rocket 3.4 23:43:35 10° NNW 23:48:24 62° WSW 23:50:25 33° S
Helios 1B rocket 3.6 23:50:17 10° NNE 23:54:01 32° E 23:55:23 26° SE
CREW DRAGON DEMO-1 DEB 2.6 23:54:49 44° WSW 23:55:39 85° SSE 23:58:43 10° ENE
